Weather History for Hyannis, MA

Change the Weather History Date:

Tuesday, April 23, 2013

  Actual Average Record
Temperature  
Mean Temperature 44 °F -  
Max Temperature 46 °F 56 °F 75 °F (1962)
Min Temperature 41 °F 39 °F 27 °F (1965)
Degree Days  
Heating Degree Days 22    
Moisture  
Dew Point 43 °F    
Average Humidity 95    
Maximum Humidity 100    
Minimum Humidity 76    
Precipitation  
Precipitation 1.21 in - - ()
Sea Level Pressure  
Sea Level Pressure 30.26 in    
Wind  
Wind Speed 11 mph (NE)    
Max Wind Speed 21 mph    
Max Gust Speed 32 mph    
Visibility 4 miles    
Events Rain    
Averages and records for this station are not official NWS values.
T = Trace of Precipitation, MM = Missing Value Source: NWS Daily Summary

Daily Weather History Graph

Daily Weather History Graph

Search for Another Location

Airport:

Trip Planner

Search our weather history database for the weather conditions in past years. The results will help you decide how hot, cold, wet, or windy it might be!

Date:

Astronomy

Apr. 23, 2013 Rise Set
Actual Time 5:48 AM EDT 7:30 PM EDT
Civil Twilight 5:19 AM EDT 8:00 PM EDT
Nautical Twilight 4:43 AM EDT 8:36 PM EDT
Astronomical Twilight 4:05 AM EDT 9:14 PM EDT
Moon 5:20 PM EDT (4/23) 4:16 AM EDT (4/23)
Length of Visible Light 14h 41m
Length of Day
13h 42m
Waxing Gibbous, 94% of the Moon is Illuminated
Apr 23
Waxing Gibbous
Apr 25
Full
May 2
Last Quarter
May 9
New
May 18
First Quarter

Hourly Weather History & Observations

Time (EDT) Temp. Windchill Dew Point Humidity Pressure Visibility Wind Dir Wind Speed Gust Speed Precip Events Conditions
12:56 AM 42.1 °F 38.4 °F 35.1 °F 76% 30.52 in 10.0 mi ENE 5.8 mph - N/A   Overcast
1:56 AM 42.1 °F 36.6 °F 36.0 °F 79% 30.49 in 10.0 mi East 9.2 mph - N/A   Overcast
2:43 AM 42.8 °F 37.0 °F 37.4 °F 81% 30.47 in 6.0 mi ENE 10.4 mph - N/A   Overcast
2:56 AM 42.1 °F 38.4 °F 39.0 °F 89% 30.47 in 4.0 mi ENE 5.8 mph - N/A   Overcast
3:12 AM 41.0 °F 37.1 °F 39.2 °F 93% 30.46 in 2.5 mi NE 5.8 mph - N/A   Overcast
3:27 AM 41.0 °F 36.4 °F 39.2 °F 93% 30.45 in 2.0 mi NE 6.9 mph - N/A   Overcast
3:56 AM 41.0 °F 37.1 °F 39.9 °F 96% 30.45 in 1.8 mi NNE 5.8 mph - N/A   Overcast
4:43 AM 42.8 °F 38.6 °F 41.0 °F 93% 30.44 in 2.0 mi NE 6.9 mph - 0.02 in Rain Light Rain
4:56 AM 42.1 °F 37.7 °F 41.0 °F 96% 30.44 in 2.0 mi NE 6.9 mph - 0.03 in Rain Light Rain
5:47 AM 42.8 °F 38.6 °F 41.0 °F 93% 30.43 in 4.0 mi NNE 6.9 mph - 0.01 in   Overcast
5:56 AM 42.1 °F 36.6 °F 41.0 °F 96% 30.43 in 4.0 mi NE 9.2 mph - 0.01 in   Overcast
6:56 AM 43.0 °F 36.8 °F 42.1 °F 97% 30.41 in 4.0 mi ENE 11.5 mph - 0.00 in Rain Light Rain
7:56 AM 44.1 °F 39.5 °F 42.1 °F 93% 30.41 in 4.0 mi ENE 8.1 mph - 0.01 in Rain Light Rain
8:56 AM 45.0 °F 40.1 °F 43.0 °F 93% 30.39 in 6.0 mi ENE 9.2 mph - 0.00 in Rain Light Rain
9:56 AM 45.0 °F 40.1 °F 44.1 °F 97% 30.38 in 7.0 mi ENE 9.2 mph 20.7 mph 0.00 in   Overcast
10:56 AM 46.0 °F 39.9 °F 44.1 °F 93% 30.36 in 5.0 mi NE 13.8 mph 17.3 mph 0.01 in Rain Light Rain
11:56 AM 46.0 °F 39.9 °F 45.0 °F 96% 30.34 in 4.0 mi NE 13.8 mph - 0.02 in Rain Light Rain
12:56 PM 46.0 °F 39.0 °F 45.0 °F 96% 30.30 in 5.0 mi NE 17.3 mph 24.2 mph 0.03 in Rain Light Rain
1:56 PM 46.0 °F 39.9 °F 44.1 °F 93% 30.27 in 4.0 mi NE 13.8 mph 20.7 mph 0.03 in Rain Light Rain
2:56 PM 46.0 °F 39.9 °F 45.0 °F 96% 30.23 in 4.0 mi NE 13.8 mph 24.2 mph 0.05 in Rain Light Rain
3:56 PM 45.0 °F 37.9 °F 44.1 °F 97% 30.20 in 4.0 mi NE 16.1 mph 21.9 mph 0.06 in Rain Rain
4:56 PM 45.0 °F 37.6 °F 44.1 °F 97% 30.16 in 4.0 mi NE 17.3 mph 29.9 mph 0.08 in Rain Light Rain
5:54 PM 44.6 °F 38.1 °F 44.6 °F 100% 30.14 in 2.5 mi NE 13.8 mph 24.2 mph 0.05 in Rain Light Rain
5:56 PM 45.0 °F 38.2 °F 44.1 °F 97% 30.14 in 2.0 mi NE 15.0 mph 24.2 mph 0.05 in Rain Rain
6:06 PM 44.6 °F 37.8 °F 44.6 °F 100% 30.14 in 1.5 mi NNE 15.0 mph 28.8 mph 0.01 in Rain Light Rain
6:56 PM 45.0 °F 38.2 °F 44.1 °F 97% 30.13 in 2.0 mi NNE 15.0 mph 20.7 mph 0.06 in Rain Light Rain
7:16 PM 44.6 °F 37.4 °F 44.6 °F 100% 30.11 in 3.0 mi NNE 16.1 mph 24.2 mph 0.01 in Rain Light Rain
7:56 PM 45.0 °F 38.2 °F 44.1 °F 97% 30.10 in 5.0 mi NNE 15.0 mph 24.2 mph 0.04 in Rain Light Rain
8:56 PM 45.0 °F 37.1 °F 44.1 °F 97% 30.07 in 4.0 mi NNE 19.6 mph 26.5 mph 0.06 in Rain Rain
9:14 PM 44.6 °F 37.4 °F 44.6 °F 100% 30.06 in 2.5 mi NNE 16.1 mph 24.2 mph 0.05 in Rain Rain
9:21 PM 44.6 °F 36.6 °F 44.6 °F 100% 30.06 in 5.0 mi NNE 19.6 mph 27.6 mph 0.06 in Rain Rain
9:56 PM 44.1 °F 36.2 °F 44.1 °F 100% 30.05 in 4.0 mi NNE 18.4 mph 28.8 mph 0.11 in Rain Rain
10:51 PM 44.6 °F 37.2 °F 42.8 °F 93% 30.00 in 2.5 mi North 17.3 mph 29.9 mph 0.22 in Rain Heavy Rain
10:56 PM 44.1 °F 36.5 °F 44.1 °F 100% 30.00 in 3.0 mi North 17.3 mph 29.9 mph 0.23 in Rain Heavy Rain
11:20 PM 44.6 °F 36.6 °F 44.6 °F 100% 29.98 in 2.5 mi NNE 19.6 mph 29.9 mph 0.11 in Rain Heavy Rain
11:56 PM 44.1 °F 35.7 °F 44.1 °F 100% 29.96 in 2.0 mi NNE 20.7 mph 32.2 mph 0.33 in Rain Heavy Rain